User: anonymous   Login
Location: Unspecified
(0.0000°N, 0.0000°E)
Time: 14:52:41
(UTC+00:00)
Language:

Gonets-D1 - Orbit

View from above orbital plane
View from above orbital plane
View from above satellite
View from above satellite

Ground track
Ground track

The orbit data is extracted from the following two-line orbital elements,

1 23788U 96009B   18267.69497022 +.00000005 +00000-0 -31139-4 0  9992
2 23788 082.5704 310.2968 0006456 003.4276 356.6871 12.63143367041960
Epoch (UTC): 24 September 2018 16:40:45
Eccentricity: 0.0006456
inclination: 82.5704°
perigee height: 1405 km
apogee height: 1415 km
right ascension of ascending node: 310.2968°
argument of perigee: 3.4276°
revolutions per day: 12.63143367
mean anomaly at epoch: 356.6871°
orbit number at epoch: 4196

The dashed part of the orbit path shows where the satellite is in the earth's shadow,  

DLR